Regional Weather Roundup
Issued by NWS

Home | Current Version | Previous Version | Text Only | Print | Product List | Glossary On
Versions: 1 2 3 4 5 6 7 8 9 10 11 12 13 14 15 16 17 18 19 20 21 22 23 24 25 26 27 28 29 30 31 32 33 34 35 36 37 38 39 40 41 42 43 44 45 46 47 48 49 50
000
ASUS45 KBOI 021110
RWRID
WEATHER ROUNDUP FOR IDAHO
NATIONAL WEATHER SERVICE BOISE ID
500 AM MDT TUE SEP 02 2014

NOTE: "FAIR" INDICATES FEW OR NO CLOUDS BELOW 12000 FEET
WITH NO SIGNIFICANT WEATHER AND/OR OBSTRUCTIONS TO VISIBILITY

IDZ012-014-021200-
SOUTHWEST IDAHO


CITY           SKY/WX    TMP DP  RH WIND       PRES   REMARKS
BOISE          CLEAR     56  36  47 SE8       29.96S
CALDWELL       CLEAR     46  34  61 CALM      29.98R
MOUNTAIN HOME  CLEAR     50  34  53 E7        29.97F
$$

IDZ016-017-021200-
SOUTHCENTRAL IDAHO


CITY           SKY/WX    TMP DP  RH WIND       PRES   REMARKS
BURLEY         CLEAR     48  41  76 S5        30.02F
JEROME         CLEAR     47  37  68 E6        30.02F
TWIN FALLS     CLEAR     56  38  50 S12       30.02S
$$

IDZ019>023-021200-
SOUTHEAST IDAHO


CITY           SKY/WX    TMP DP  RH WIND       PRES   REMARKS
IDAHO FALLS    CLEAR     48  38  68 SW8       30.06S
POCATELLO      CLEAR     49  39  68 E6        30.05S
REXBURG        CLEAR     42  39  89 N5        30.06F
$$

IDZ006-010-011-018-031-032-021200-
CENTRAL IDAHO MOUNTAINS


CITY           SKY/WX    TMP DP  RH WIND       PRES   REMARKS
MCCALL         CLEAR     39  33  79 CALM      30.05S
HAILEY         CLEAR     43  34  70 NW13      30.09F
STANLEY          N/A     32  27  81 S5        30.15S WCI  27
SALMON         CLEAR     43  39  87 CALM      30.03R
CHALLIS        CLEAR     46  36  68 CALM      30.05S
$$

IDZ002-004-006-007-026-021200-
NORTHERN IDAHO


CITY           SKY/WX    TMP DP  RH WIND       PRES   REMARKS
LEWISTON       PTCLDY    57  43  59 CALM      29.90F
LOWELL           N/A     49  47  93 N6        30.00S
COEUR D`ALENE  CLOUDY    54  45  71 S3        29.90S
MULLAN PASS    MOCLDY    46  37  71 SW9       30.01F
$$


USA.gov is the U.S. government's official web portal to all federal, state and local government web resources and services.